Weather History for KWJF - December, 2012

Change the Weather History Date:

Monday, December 24, 2012

  Actual Average Record
Temperature  
Mean Temperature 44 °F 43 °F  
Max Temperature 55 °F 57 °F 72 °F (2005)
Min Temperature 33 °F 29 °F 2 °F (1984)
Degree Days  
Heating Degree Days 21    
Month to date heating degree days 436  
Since 1 July heating degree days 868  
Cooling Degree Days 0    
Month to date cooling degree days 0  
Year to date cooling degree days 2282  
Moisture  
Dew Point 37 °F    
Average Humidity 64    
Maximum Humidity 82    
Minimum Humidity 46    
Precipitation  
Precipitation T in 0.04 in 1.42 in (1971)
Month to date precipitation 0.08 0.81  
Year to date precipitation 1.83 7.04  
Since 1 July precipitation 0.13 2.13  
Snow  
Snow 0.00 in - 0.00 in ()
Month to date snowfall 0.0  
Since 1 July snowfall 0.0  
Snow Depth 0.00 in    
Sea Level Pressure  
Sea Level Pressure 30.06 in    
Wind  
Wind Speed 18 mph (West)    
Max Wind Speed 38 mph    
Max Gust Speed 45 mph    
Visibility 10 miles    
Events Rain    
T = Trace of Precipitation, MM = Missing Value Source: NWS Daily Summary

Daily Weather History Graph

Daily Weather History Graph

Search for Another Location

Airport or City:

Trip Planner

Search our weather history database for the weather conditions in past years. The results will help you decide how hot, cold, wet, or windy it might be!

Date:

Astronomy

Dec. 24, 2012 Rise Set
Actual Time 6:57 AM PST 4:47 PM PST
Civil Twilight 6:29 AM PST 5:15 PM PST
Nautical Twilight 5:58 AM PST 5:47 PM PST
Astronomical Twilight 5:27 AM PST 6:18 PM PST
Moon 2:15 PM PST (12/24) 3:43 AM PST (12/24)
Length of Visible Light 10h 45m
Length of Day
9h 49m
Waxing Gibbous, 89% of the Moon is Illuminated
Dec 24
Waxing Gibbous
Dec 28
Full
Jan 4
Last Quarter
Jan 11
New
Jan 18
First Quarter

Hourly Weather History & Observations

Time (PST) Temp. Windchill Dew Point Humidity Pressure Visibility Wind Dir Wind Speed Gust Speed Precip Events Conditions
12:15 AM 46.4 °F 41.9 °F 41.0 °F 81% 30.03 in 10.0 mi West 9.2 mph - N/A   Mostly Cloudy
12:39 AM 48.2 °F - 41.0 °F 76% 30.03 in 10.0 mi West 12.7 mph - N/A   Mostly Cloudy
12:56 AM 48.0 °F - 41.0 °F 77% 30.03 in 10.0 mi WSW 13.8 mph 20.7 mph N/A   Mostly Cloudy
1:56 AM 48.0 °F - 41.0 °F 77% 30.02 in 10.0 mi WSW 15.0 mph - N/A   Mostly Cloudy
2:56 AM 48.9 °F - 42.1 °F 77% 30.02 in 10.0 mi SW 19.6 mph 28.8 mph N/A   Mostly Cloudy
3:56 AM 48.9 °F - 43.0 °F 80% 30.02 in 10.0 mi West 12.7 mph 25.3 mph 0.00 in   Overcast
4:56 AM 48.9 °F - 43.0 °F 80% 30.00 in 10.0 mi WSW 16.1 mph - N/A   Mostly Cloudy
5:56 AM 48.0 °F - 44.1 °F 86% 30.02 in 10.0 mi WSW 10.4 mph - 0.00 in Rain Light Rain
6:56 AM 48.9 °F - 44.1 °F 83% 30.00 in 10.0 mi WSW 23.0 mph - 0.00 in   Partly Cloudy
7:56 AM 51.1 °F - 44.1 °F 77% 30.03 in 10.0 mi West 21.9 mph - N/A   Clear
8:56 AM 52.0 °F - 39.9 °F 63% 30.04 in 10.0 mi West 31.1 mph 40.3 mph N/A   Clear
9:56 AM 53.1 °F - 39.0 °F 59% 30.08 in 10.0 mi WSW 31.1 mph 38.0 mph N/A   Clear
10:56 AM 52.0 °F - 37.9 °F 59% 30.08 in 10.0 mi West 32.2 mph 41.4 mph N/A   Clear
11:56 AM 53.1 °F - 36.0 °F 52% 30.06 in 10.0 mi West 28.8 mph 35.7 mph N/A   Clear
12:56 PM 55.0 °F - 35.1 °F 47% 30.04 in 10.0 mi West 21.9 mph - N/A   Clear
1:56 PM 54.0 °F - 33.1 °F 45% 30.03 in 10.0 mi West 19.6 mph - N/A   Clear
2:56 PM 53.1 °F - 33.1 °F 47% 30.03 in 10.0 mi West 19.6 mph - N/A   Clear
3:56 PM 50.0 °F - 32.0 °F 50% 30.04 in 10.0 mi West 20.7 mph - N/A   Clear
4:56 PM 46.0 °F 38.8 °F 32.0 °F 58% 30.04 in 10.0 mi West 18.4 mph 26.5 mph N/A   Clear
5:56 PM 44.1 °F 35.9 °F 32.0 °F 63% 30.08 in 10.0 mi WNW 19.6 mph - N/A   Clear
6:56 PM 44.1 °F 37.7 °F 30.9 °F 60% 30.08 in 10.0 mi WNW 12.7 mph - N/A   Clear
7:56 PM 44.1 °F 36.2 °F 32.0 °F 63% 30.10 in 10.0 mi West 18.4 mph - N/A   Clear
8:56 PM 44.1 °F 37.7 °F 30.9 °F 60% 30.11 in 10.0 mi WNW 12.7 mph - N/A   Clear
9:56 PM 39.9 °F 35.8 °F 30.0 °F 68% 30.14 in 10.0 mi NNW 5.8 mph - N/A   Clear
10:56 PM 39.0 °F 34.0 °F 30.0 °F 70% 30.15 in 10.0 mi WSW 6.9 mph - N/A   Clear
11:56 PM 33.1 °F 27.7 °F 26.1 °F 75% 30.17 in 10.0 mi WNW 5.8 mph - N/A   Clear